| time (UTC) | temp C | wind direction | speed KPH | gust KPH | rain 1hr cm | rain 24hr cm | rain mn cm | humidity % | barometer mb |
| 20260906012414 | 16 | 194 | 3.2 | 6.4 | 0.00 | 0.00 | 0.00 | 1 | 1024.2 |
| 20260906010248 | 16 | 197 | 3.2 | 6.4 | 0.00 | 0.00 | 0.00 | 1 | 1024.4 |
| 20260906005218 | 16 | 196 | 3.2 | 6.4 | 0.00 | 0.00 | 0.00 | 1 | 1024.5 |
| 20260906004202 | 16 | 225 | 1.6 | 4.8 | 0.00 | 0.00 | 0.00 | 1 | 1024.4 |
| 20260906003211 | 16 | 228 | 1.6 | 4.8 | 0.00 | 0.00 | 0.00 | 1 | 1024.4 |
| 20260906001054 | 17 | 236 | 1.6 | 9.7 | 0.00 | 0.00 | 0.00 | 1 | 1024.6 |
| 20260906000055 | 17 | 244 | 3.2 | 9.7 | 0.00 | 0.00 | 0.00 | 1 | 1024.7 |
| 20260905235045 | 17 | 220 | 1.6 | 6.4 | 0.00 | 0.00 | 0.00 | 1 | 1024.6 |
| 20260905234011 | 17 | 203 | 1.6 | 6.4 | 0.00 | 0.00 | 0.00 | 1 | 1024.6 |
| 20260905232946 | 17 | 196 | 3.2 | 8.0 | 0.00 | 0.00 | 0.00 | 1 | 1024.5 |
| 20260905231928 | 17 | 231 | 3.2 | 11.3 | 0.00 | 0.00 | 0.00 | 1 | 1024.5 |
| 20260905230945 | 17 | 202 | 4.8 | 11.3 | 0.00 | 0.00 | 0.00 | 1 | 1024.5 |
| 20260905225933 | 17 | 202 | 4.8 | 9.7 | 0.00 | 0.00 | 0.00 | 1 | 1024.5 |
| 20260905224858 | 17 | 219 | 3.2 | 11.3 | 0.00 | 0.00 | 0.00 | 1 | 1024.5 |
| 20260905222705 | 17 | 221 | 6.4 | 11.3 | 0.00 | 0.00 | 0.00 | 1 | 1024.3 |
| 20260905221729 | 17 | 219 | 4.8 | 11.3 | 0.00 | 0.00 | 0.00 | 1 | 1024.2 |
| 20260905220748 | 17 | 221 | 3.2 | 12.9 | 0.00 | 0.00 | 0.00 | 1 | 1024.0 |
| 20260905214702 | 17 | 229 | 3.2 | 9.7 | 0.00 | 0.00 | 0.00 | 1 | 1024.0 |
| 20260905213650 | 17 | 219 | 4.8 | 11.3 | 0.00 | 0.00 | 0.00 | 1 | 1024.1 |
| 20260905212643 | 17 | 205 | 6.4 | 14.5 | 0.00 | 0.00 | 0.00 | 1 | 1024.1 |
| 20260905211638 | 17 | 218 | 6.4 | 14.5 | 0.00 | 0.00 | 0.00 | 1 | 1024.0 |
| 20260905210629 | 17 | 222 | 4.8 | 8.0 | 0.00 | 0.00 | 0.00 | 1 | 1023.9 |
| 20260905205612 | 17 | 228 | 4.8 | 11.3 | 0.00 | 0.00 | 0.00 | 1 | 1024.0 |
| 20260905204554 | 17 | 189 | 4.8 | 11.3 | 0.00 | 0.00 | 0.00 | 1 | 1024.0 |
| 20260905203532 | 17 | 215 | 4.8 | 9.7 | 0.00 | 0.00 | 0.00 | 1 | 1024.2 |
| 20260905201353 | 18 | 229 | 4.8 | 11.3 | 0.00 | 0.00 | 0.00 | 1 | 1024.1 |
| 20260905200335 | 18 | 224 | 3.2 | 11.3 | 0.00 | 0.00 | 0.00 | 1 | 1024.0 |
| 20260905195259 | 18 | 215 | 4.8 | 11.3 | 0.00 | 0.00 | 0.00 | 1 | 1024.0 |
| 20260905194302 | 18 | 217 | 6.4 | 12.9 | 0.00 | 0.00 | 0.00 | 1 | 1024.0 |
| 20260905193251 | 18 | 202 | 6.4 | 12.9 | 0.00 | 0.00 | 0.00 | 1 | 1024.0 |
| 20260905192301 | 18 | 198 | 6.4 | 11.3 | 0.00 | 0.00 | 0.00 | 1 | 1023.9 |
| 20260905191319 | 18 | 211 | 4.8 | 8.0 | 0.00 | 0.00 | 0.00 | 9 | 1023.8 |
| 20260905190331 | 19 | 202 | 3.2 | 6.4 | 0.00 | 0.00 | 0.00 | 21 | 1023.6 |
| 20260905185344 | 19 | 198 | 3.2 | 6.4 | 0.00 | 0.00 | 0.00 | 28 | 1023.5 |
| 20260905184317 | 20 | 173 | 3.2 | 6.4 | 0.00 | 0.00 | 0.00 | 31 | 1023.6 |
| 20260905183334 | 20 | 95 | 1.6 | 3.2 | 0.00 | 0.00 | 0.00 | 33 | 1023.4 |
| 20260905182313 | 20 | 82 | 0.0 | 0.0 | 0.00 | 0.00 | 0.00 | 36 | 1023.4 |
| 20260905181247 | 20 | 79 | 0.0 | 0.0 | 0.00 | 0.00 | 0.00 | 38 | 1023.3 |
| 20260905180254 | 21 | 78 | 0.0 | 1.6 | 0.00 | 0.00 | 0.00 | 38 | 1023.2 |
| 20260905174147 | 21 | 74 | 0.0 | 6.4 | 0.00 | 0.00 | 0.00 | 40 | 1023.4 |
| 20260905173152 | 22 | 64 | 1.6 | 6.4 | 0.00 | 0.00 | 0.00 | 40 | 1023.2 |
| 20260905172132 | 22 | 53 | 1.6 | 9.7 | 0.00 | 0.00 | 0.00 | 41 | 1023.4 |
| 20260905171143 | 23 | 69 | 3.2 | 8.0 | 0.00 | 0.00 | 0.00 | 42 | 1023.4 |
| 20260905170122 | 23 | 42 | 3.2 | 8.0 | 0.00 | 0.00 | 0.00 | 42 | 1023.4 |
| 20260905160545 | 23 | 24 | 3.2 | 9.7 | 0.00 | 0.00 | 0.00 | 41 | 1023.3 |
| 20260905155528 | 23 | 35 | 3.2 | 9.7 | 0.00 | 0.00 | 0.00 | 41 | 1023.3 |
| 20260905154529 | 24 | 51 | 3.2 | 8.0 | 0.00 | 0.00 | 0.00 | 41 | 1023.4 |
| 20260905153536 | 24 | 22 | 3.2 | 8.0 | 0.00 | 0.00 | 0.00 | 41 | 1023.4 |
| 20260905152558 | 25 | 38 | 4.8 | 11.3 | 0.00 | 0.00 | 0.00 | 40 | 1023.4 |
| 20260905151546 | 25 | 44 | 1.6 | 12.9 | 0.00 | 0.00 | 0.00 | 40 | 1023.5 |
| 20260905144258 | 25 | 30 | 0.0 | 0.0 | 0.00 | 0.00 | 0.00 | 40 | 1023.6 |
| 20260905143226 | 24 | 5 | 1.6 | 0.0 | 0.00 | 0.00 | 0.00 | 40 | 1023.4 |
| 20260905142220 | 23 | 5 | 3.2 | 9.7 | 0.00 | 0.00 | 0.00 | 40 | 1023.3 |
| 20260905141214 | 24 | 28 | 3.2 | 12.9 | 0.00 | 0.00 | 0.00 | 40 | 1023.3 |
| 20260905140235 | 24 | 5 | 3.2 | 12.9 | 0.00 | 0.00 | 0.00 | 40 | 1023.3 |
| 20260905135257 | 25 | 26 | 3.2 | 12.9 | 0.00 | 0.00 | 0.00 | 39 | 1023.3 |
| 20260905134252 | 24 | 10 | 3.2 | 12.9 | 0.00 | 0.00 | 0.00 | 39 | 1023.2 |
| 20260905132203 | 24 | 5 | 3.2 | 12.9 | 0.00 | 0.00 | 0.00 | 38 | 1023.2 |
| 20260905130039 | 23 | 0 | 3.2 | 12.9 | 0.00 | 0.00 | 0.00 | 37 | 1023.3 |
| 20260905125015 | 23 | 9 | 4.8 | 12.9 | 0.00 | 0.00 | 0.00 | 35 | 1023.2 |
| 20260905124012 | 23 | 5 | 4.8 | 12.9 | 0.00 | 0.00 | 0.00 | 35 | 1023.3 |
| 20260905123017 | 23 | 13 | 6.4 | 12.9 | 0.00 | 0.00 | 0.00 | 35 | 1023.2 |
| 20260905122000 | 23 | 5 | 3.2 | 12.9 | 0.00 | 0.00 | 0.00 | 34 | 1023.2 |
| 20260905120948 | 23 | 5 | 4.8 | 17.7 | 0.00 | 0.00 | 0.00 | 32 | 1023.1 |
| 20260905115935 | 22 | 355 | 4.8 | 17.7 | 0.00 | 0.00 | 0.00 | 28 | 1023.1 |
| 20260905114943 | 22 | 0 | 4.8 | 14.5 | 0.00 | 0.00 | 0.00 | 26 | 1023.1 |
| 20260905111553 | 22 | 21 | 1.6 | 12.9 | 0.00 | 0.00 | 0.00 | 26 | 1023.0 |
| 20260905110550 | 22 | 28 | 1.6 | 11.3 | 0.00 | 0.00 | 0.00 | 22 | 1022.9 |
| 20260905104454 | 22 | 11 | 3.2 | 12.9 | 0.00 | 0.00 | 0.00 | 21 | 1022.8 |
| 20260905103426 | 22 | 0 | 4.8 | 16.1 | 0.00 | 0.00 | 0.00 | 19 | 1022.8 |
| 20260905102421 | 22 | 338 | 6.4 | 16.1 | 0.00 | 0.00 | 0.00 | 15 | 1022.8 |
| 20260905100304 | 21 | 355 | 1.6 | 14.5 | 0.00 | 0.00 | 0.00 | 1 | 1022.8 |
| 20260905094124 | 20 | 296 | 1.6 | 14.5 | 0.00 | 0.00 | 0.00 | 1 | 1022.5 |
| 20260905093136 | 20 | 307 | 3.2 | 12.9 | 0.00 | 0.05 | 0.00 | 1 | 1022.4 |
| 20260905092125 | 20 | 323 | 1.6 | 12.9 | 0.00 | 0.08 | 0.00 | 1 | 1022.3 |
| 20260905091107 | 19 | 310 | 3.2 | 12.9 | 0.00 | 0.08 | 0.00 | 1 | 1022.2 |
| 20260905090043 | 19 | 333 | 3.2 | 12.9 | 0.00 | 0.08 | 0.00 | 1 | 1022.2 |
| 20260905085040 | 18 | 347 | 4.8 | 17.7 | 0.00 | 0.08 | 0.00 | 1 | 1022.1 |
| 20260905084056 | 18 | 321 | 4.8 | 17.7 | 0.00 | 0.08 | 0.00 | 1 | 1022.1 |
| 20260905083100 | 18 | 302 | 4.8 | 14.5 | 0.00 | 0.08 | 0.00 | 1 | 1021.9 |
| 20260905082051 | 18 | 313 | 3.2 | 14.5 | 0.00 | 0.08 | 0.00 | 1 | 1021.9 |
| 20260905081054 | 17 | 295 | 3.2 | 14.5 | 0.00 | 0.08 | 0.00 | 1 | 1021.7 |
| 20260905080058 | 17 | 279 | 3.2 | 16.1 | 0.00 | 0.08 | 0.00 | 1 | 1021.6 |
| 20260905075112 | 16 | 260 | 6.4 | 16.1 | 0.00 | 0.08 | 0.00 | 1 | 1021.6 |
| 20260905074129 | 16 | 267 | 4.8 | 12.9 | 0.00 | 0.08 | 0.00 | 1 | 1021.5 |
| 20260905073117 | 16 | 276 | 4.8 | 14.5 | 0.00 | 0.08 | 0.00 | 1 | 1021.4 |
| 20260905072125 | 15 | 268 | 4.8 | 14.5 | 0.00 | 0.08 | 0.00 | 1 | 1021.3 |
| 20260905071135 | 15 | 274 | 4.8 | 11.3 | 0.00 | 0.08 | 0.00 | 1 | 1021.1 |
| 20260905070105 | 14 | 269 | 4.8 | 12.9 | 0.00 | 0.08 | 0.00 | 1 | 1021.0 |
| 20260905065120 | 14 | 263 | 4.8 | 12.9 | 0.00 | 0.08 | 0.00 | 1 | 1021.0 |
| 20260905064051 | 13 | 279 | 3.2 | 12.9 | 0.00 | 0.08 | 0.00 | 1 | 1021.0 |
| 20260905063039 | 13 | 243 | 4.8 | 12.9 | 0.00 | 0.08 | 0.00 | 1 | 1020.9 |
| 20260905062035 | 13 | 250 | 3.2 | 11.3 | 0.00 | 0.08 | 0.00 | 1 | 1020.7 |
| 20260905061008 | 13 | 242 | 3.2 | 11.3 | 0.00 | 0.08 | 0.00 | 1 | 1020.6 |
| 20260905060028 | 13 | 254 | 3.2 | 9.7 | 0.00 | 0.08 | 0.00 | 1 | 1020.6 |
| 20260905055019 | 13 | 261 | 3.2 | 9.7 | 0.00 | 0.08 | 0.00 | 1 | 1020.3 |
| 20260905054031 | 13 | 256 | 3.2 | 11.3 | 0.00 | 0.08 | 0.00 | 1 | 1020.3 |
| 20260905053029 | 13 | 265 | 4.8 | 14.5 | 0.00 | 0.08 | 0.00 | 1 | 1020.2 |
| 20260905052009 | 13 | 265 | 4.8 | 14.5 | 0.00 | 0.08 | 0.00 | 1 | 1020.1 |
| 20260905051001 | 13 | 252 | 4.8 | 9.7 | 0.00 | 0.08 | 0.00 | 1 | 1020.0 |
| 20260905044759 | 13 | 261 | 3.2 | 11.3 | 0.00 | 0.08 | 0.00 | 1 | 1019.7 |
| 20260905043820 | 13 | 255 | 4.8 | 12.9 | 0.00 | 0.08 | 0.00 | 1 | 1019.6 |
| 20260905042810 | 13 | 279 | 4.8 | 12.9 | 0.00 | 0.08 | 0.00 | 1 | 1019.6 |
| 20260905035602 | 13 | 257 | 6.4 | 12.9 | 0.00 | 0.08 | 0.00 | 1 | 1019.1 |
| 20260905034611 | 13 | 272 | 4.8 | 12.9 | 0.00 | 0.08 | 0.00 | 1 | 1019.0 |
| 20260905033553 | 13 | 263 | 6.4 | 12.9 | 0.00 | 0.08 | 0.00 | 1 | 1019.0 |
| 20260905032559 | 13 | 255 | 4.8 | 11.3 | 0.00 | 0.08 | 0.00 | 1 | 1018.9 |
| 20260905031615 | 13 | 241 | 4.8 | 12.9 | 0.00 | 0.08 | 0.00 | 1 | 1019.0 |
| 20260905030540 | 13 | 257 | 4.8 | 12.9 | 0.00 | 0.08 | 0.00 | 1 | 1018.9 |
| 20260905025543 | 13 | 262 | 3.2 | 11.3 | 0.00 | 0.08 | 0.00 | 1 | 1018.8 |
| 20260905023403 | 13 | 240 | 4.8 | 14.5 | 0.00 | 0.08 | 0.00 | 1 | 1018.7 |
| 20260905022352 | 14 | 248 | 4.8 | 14.5 | 0.00 | 0.08 | 0.00 | 1 | 1018.6 |
| 20260905021414 | 14 | 246 | 4.8 | 12.9 | 0.00 | 0.08 | 0.00 | 1 | 1018.5 |
| 20260905020350 | 14 | 248 | 4.8 | 12.9 | 0.00 | 0.08 | 0.00 | 1 | 1018.4 |